Corning, AR

12:40 PM CDT on May 26, 2017 (GMT -0500)
Corning

Weather History for K4M9 - October, 2011

Change the Weather History Date:

Tuesday, October 4, 2011

  Actual Average (KARG) Record (KARG)
Temperature  
Mean Temperature 61 °F -  
Max Temperature 78 °F 73 °F 89 °F (2002)
Min Temperature 44 °F 51 °F 37 °F (2010)
Degree Days  
Heating Degree Days 4    
Growing Degree Days 11 (Base 50)    
Moisture  
Dew Point 47 °F    
Average Humidity 64    
Maximum Humidity 100    
Minimum Humidity 28    
Precipitation  
Precipitation 0.07 in - - ()
Sea Level Pressure  
Sea Level Pressure 30.25 in    
Wind  
Wind Speed 1 mph (South)    
Max Wind Speed 7 mph    
Max Gust Speed -    
Visibility 1 miles    
Events Rain    
Averages and records for this station are not official NWS values.
T = Trace of Precipitation, MM = Missing Value Source: NWS Daily Summary

Daily Weather History Graph

Daily Weather History Graph

Search for Another Location

Airport or City:

Trip Planner

Search our weather history database for the weather conditions in past years. The results will help you decide how hot, cold, wet, or windy it might be!

Date:

Astronomy

Oct. 04, 2011 Rise Set
Actual Time 7:00 AM CDT 6:42 PM CDT
Civil Twilight 6:34 AM CDT 7:07 PM CDT
Nautical Twilight 6:04 AM CDT 7:37 PM CDT
Astronomical Twilight 5:34 AM CDT 8:07 PM CDT
Moon 2:33 PM CDT (10/4) No Moon Set
Length of Visible Light 12h 33m
Length of Day
11h 42m
First Quarter, 56% of the Moon is Illuminated
Oct 4
First Quarter
Oct 11
Full
Oct 19
Last Quarter
Oct 26
New
Nov 2
First Quarter

Hourly Weather History & Observations

Time (CDT) Temp. Windchill Dew Point Humidity Pressure Visibility Wind Dir Wind Speed Gust Speed Precip Events Conditions
12:35 AM 48.2 °F - 46.4 °F 93% 30.23 in - Calm Calm - N/A   Unknown
12:55 AM 48.2 °F - 46.4 °F 93% 30.22 in - NW 4.6 mph - N/A   Unknown
1:15 AM 50.0 °F - 46.4 °F 87% 30.23 in - Calm Calm - N/A   Unknown
1:35 AM 48.2 °F - 46.4 °F 93% 30.23 in - Calm Calm - N/A   Unknown
1:55 AM 48.2 °F - 46.4 °F 93% 30.23 in - Calm Calm - N/A   Unknown
2:15 AM 48.2 °F - 46.4 °F 93% 30.23 in - Calm Calm - N/A   Unknown
2:35 AM 48.2 °F - 46.4 °F 93% 30.23 in - Calm Calm - N/A   Unknown
3:15 AM 48.2 °F - 46.4 °F 93% 30.23 in - Calm Calm - N/A   Unknown
3:35 AM 46.4 °F - 44.6 °F 93% 30.24 in - Calm Calm - N/A   Unknown
3:55 AM 44.6 °F - 44.6 °F 100% 30.24 in - Calm Calm - N/A   Unknown
4:15 AM 46.4 °F - 44.6 °F 93% 30.25 in - Calm Calm - N/A   Unknown
4:35 AM 46.4 °F - 44.6 °F 93% 30.25 in - Calm Calm - N/A   Unknown
4:55 AM 44.6 °F 43.1 °F 44.6 °F 100% 30.25 in - North 3.5 mph - N/A   Unknown
5:15 AM 46.4 °F 45.2 °F 44.6 °F 93% 30.26 in - North 3.5 mph - N/A   Unknown
5:35 AM 46.4 °F - 44.6 °F 93% 30.27 in - Calm Calm - N/A   Unknown
5:55 AM 44.6 °F - 44.6 °F 100% 30.27 in - Calm Calm - N/A   Unknown
6:55 AM 44.6 °F 43.1 °F 42.8 °F 93% 30.28 in - NW 3.5 mph - N/A   Unknown
7:15 AM 44.6 °F - 44.6 °F 100% 30.29 in - Calm Calm - N/A   Unknown
7:35 AM 46.4 °F - 46.4 °F 100% 30.29 in - Calm Calm - N/A   Unknown
7:55 AM 48.2 °F - 46.4 °F 93% 30.30 in - Calm Calm - N/A   Unknown
8:15 AM 50.0 °F - 48.2 °F 94% 30.30 in - Calm Calm - N/A   Unknown
8:35 AM 53.6 °F - 48.2 °F 82% 30.30 in - Calm Calm - N/A   Clear
8:55 AM 55.4 °F - 50.0 °F 82% 30.30 in - Calm Calm - N/A   Clear
9:15 AM 59.0 °F - 51.8 °F 77% 30.31 in - Calm Calm - N/A   Clear
9:35 AM 62.6 °F - 51.8 °F 68% 30.31 in - Calm Calm - N/A   Clear
9:55 AM 64.4 °F - 53.6 °F 68% 30.32 in - Calm Calm - N/A   Clear
10:15 AM 66.2 °F - 50.0 °F 56% 30.32 in - Calm Calm - N/A   Clear
10:35 AM 68.0 °F - 50.0 °F 52% 30.32 in - Calm Calm - N/A   Clear
10:55 AM 71.6 °F - 48.2 °F 43% 30.31 in 0.5 mi SSE 3.5 mph - N/A Rain Light Rain
11:15 AM 73.4 °F - 48.2 °F 41% 30.31 in - Calm Calm - N/A Rain Light Rain
11:35 AM 73.4 °F - 46.4 °F 38% 30.30 in - SSE 5.8 mph - N/A Rain Light Rain
11:55 AM 75.2 °F - 44.6 °F 34% 30.30 in - Calm Calm - 0.01 in Rain Light Rain
12:15 PM 75.2 °F - 46.4 °F 36% 30.29 in - ESE 3.5 mph - N/A Rain Light Rain
12:35 PM 75.2 °F - 44.6 °F 34% 30.28 in - SSW 4.6 mph - N/A Rain Light Rain
12:55 PM 77.0 °F - 46.4 °F 34% 30.27 in - South 6.9 mph - 0.01 in Rain Light Rain
1:15 PM 77.0 °F - 41.0 °F 28% 30.26 in - South 6.9 mph - N/A Rain Light Rain
1:35 PM 77.0 °F - 42.8 °F 29% 30.25 in - NNE 4.6 mph - N/A Rain Light Rain
1:55 PM 77.0 °F - 44.6 °F 32% 30.24 in - SW 3.5 mph - 0.01 in Rain Light Rain
2:15 PM 77.0 °F - 44.6 °F 32% 30.24 in - WSW 3.5 mph - N/A Rain Light Rain
2:35 PM 77.0 °F - 42.8 °F 29% 30.23 in - SSE 6.9 mph - N/A Rain Light Rain
2:55 PM 78.8 °F - 42.8 °F 28% 30.22 in - Calm Calm - 0.01 in Rain Light Rain
3:15 PM 78.8 °F - 44.6 °F 30% 30.21 in - SW 5.8 mph - N/A Rain Light Rain
3:55 PM 77.0 °F - 44.6 °F 32% 30.21 in - Calm Calm - 0.01 in Rain Light Rain
4:15 PM 77.0 °F - 44.6 °F 32% 30.21 in 1.0 mi SSW 3.5 mph - N/A Rain Light Rain
4:35 PM 77.0 °F - 44.6 °F 32% 30.20 in - Calm Calm - N/A Rain Light Rain
4:55 PM 77.0 °F - 44.6 °F 32% 30.20 in - Calm Calm - 0.01 in Rain Light Rain
5:15 PM 77.0 °F - 44.6 °F 32% 30.20 in - South 3.5 mph - N/A Rain Light Rain
5:35 PM 75.2 °F - 46.4 °F 36% 30.20 in - Calm Calm - N/A Rain Light Rain
5:55 PM 75.2 °F - 48.2 °F 38% 30.20 in - SSW 4.6 mph - 0.01 in Rain Light Rain
6:15 PM 71.6 °F - 48.2 °F 43% 30.20 in - SSW 4.6 mph - N/A Rain Light Rain
6:35 PM 71.6 °F - 46.4 °F 41% 30.20 in - South 4.6 mph - N/A Rain Light Rain
6:55 PM 66.2 °F - 48.2 °F 52% 30.20 in - SSW 3.5 mph - N/A   Clear
7:15 PM 64.4 °F - 50.0 °F 59% 30.21 in - Calm Calm - N/A   Clear
7:35 PM 64.4 °F - 48.2 °F 56% 30.21 in - Calm Calm - N/A   Clear
7:55 PM 64.4 °F - 48.2 °F 56% 30.21 in - Calm Calm - N/A   Clear
8:15 PM 62.6 °F - 48.2 °F 59% 30.21 in - Calm Calm - N/A   Unknown
8:35 PM 62.6 °F - 48.2 °F 59% 30.21 in - Calm Calm - N/A   Unknown
8:55 PM 59.0 °F - 50.0 °F 72% 30.22 in - East 3.5 mph - N/A   Unknown
9:15 PM 59.0 °F - 48.2 °F 67% 30.22 in - ENE 3.5 mph - N/A   Unknown
9:35 PM 53.6 °F - 50.0 °F 88% 30.22 in - East 3.5 mph - N/A   Unknown
9:55 PM 55.4 °F - 48.2 °F 77% 30.22 in - Calm Calm - N/A   Unknown
10:15 PM 53.6 °F - 48.2 °F 82% 30.22 in - Calm Calm - N/A   Unknown
10:35 PM 55.4 °F - 48.2 °F 77% 30.22 in - Calm Calm - N/A   Unknown
10:55 PM 53.6 °F - 48.2 °F 82% 30.22 in - Calm Calm - N/A   Clear
11:15 PM 53.6 °F - 48.2 °F 82% 30.22 in - North 3.5 mph - N/A   Clear
11:35 PM 53.6 °F - 48.2 °F 82% 30.22 in - North 3.5 mph - N/A   Clear
11:55 PM 53.6 °F - 48.2 °F 82% 30.22 in - North 3.5 mph - N/A   Clear